#timestamp,LO_Frequency,Hit,StdDev 
1658030415.6,286046997.1,N
1658030435.4,286046995.4,N
1658030455.2,286046995.1,N
1658030475.1,286046996.7,N
1658030476.0,286046996.7,N
1658030495.8,286046996.8,N
1658030515.7,286046999.5,N
1658030535.5,286046999.2,N
1658030555.3,286046998.8,N
1658030575.2,286046999.2,N
1658030595.0,286046998.7,N
1658030595.9,286046998.7,N
1658030615.7,286046996.5,N
1658030635.6,286046997.1,N
1658030655.4,286046997.9,N
1658030675.3,286046995.6,Y
1658030695.1,286046997.1,P
1658030715.8,286046999.3,N
1658030735.7,286046997.2,P
1658030755.5,286046996.9,Y
1658030775.4,286047000.7,P
1658030795.2,286047001.9,N
1658030815.0,286047001.7,N
1658030815.9,286047001.7,N
1658030835.8,286047002.5,N
1658030855.6,286047002.7,N
1658030875.4,286047002.5,N
1658030895.3,286047004.4,N
1658030915.1,286047001.6,N
1658030935.8,286047000.4,N
1658030955.7,286047000.1,N
1658030975.5,286047002.3,N
1658030995.4,286047000.4,N
1658031015.2,286047000.7,N
1658031035.0,286046998.5,N
1658031035.9,286046998.5,N
1658031055.8,286047000.5,N
1658031075.6,286047000.3,N
1658031095.4,286046999.8,N
1658031115.3,286047002.3,N
1658031135.1,286046999.8,N
1658031155.9,286047002.4,N
1658031175.7,286047002.8,N
1658031195.5,286047000.1,N
1658031215.4,286047000.2,N
1658031235.2,286046998.6,N
1658031255.0,286047001.2,N
1658031255.9,286047001.2,N
1658031275.8,286047000.5,N
1658031295.6,286046998.8,N
1658031315.5,286046998.6,N
1658031335.3,286047001.2,N
1658031355.1,286046998.5,N
1658031375.9,286047000.9,N
1658031395.7,286046999.2,N
1658031415.5,286046999.2,N
1658031435.4,286046998.5,N
1658031455.2,286047000.9,N
1658031475.1,286046998.7,N
1658031476.0,286046998.7,N
1658031495.8,286047000.6,N
1658031515.6,286047000.8,N
1658031535.5,286046998.5,N
1658031555.3,286046998.9,N
1658031575.1,286046998.7,N
1658031595.9,286047000.8,N
1658031615.7,286046998.2,N
1658031635.6,286046998.2,N
1658031655.4,286047001.1,N
1658031675.2,286047001.2,N
1658031695.1,286046998.5,N
1658031696.0,286046998.5,N
1658031715.8,286046998.4,N
1658031735.6,286047000.9,N
1658031755.5,286047000.7,N
1658031775.3,286047000.6,N
1658031795.2,286046998.9,N
1658031815.9,286046997.4,N
1658031835.7,286046997.1,N
1658031855.6,286046999.6,N
1658031875.4,286046997.5,N
1658031895.2,286046996.5,N
1658031915.1,286046998.6,N
1658031916.0,286046998.6,N
1658031935.8,286046998.2,N
1658031955.7,286046998.7,N
1658031975.5,286046999.6,N
1658031995.3,286046999.3,N
1658032015.2,286046998.6,N
1658032035.9,286046999.5,N
1658032055.7,286046998.3,N
1658032075.6,286046998.7,N
1658032095.4,286047000.1,N
1658032115.3,286046998.3,N
1658032135.1,286047000.7,N
1658032136.0,286047000.7,N
1658032155.8,286047000.8,N
1658032175.7,286047000.5,N
1658032195.5,286046999.9,N
1658032215.3,286047002.0,N
1658032235.2,286047002.6,N
1658032255.0,286047001.9,N
1658032255.9,286047001.9,N
1658032275.8,286047002.5,N
1658032295.6,286047002.5,N
1658032315.4,286047001.5,N
1658032335.3,286047002.1,N
1658032355.1,286047002.5,N
1658032356.0,286047002.5,N
1658032375.8,286047001.6,N
1658032395.7,286047002.6,N
1658032415.5,286047001.9,N
1658032435.3,286047002.5,N
1658032455.2,286047002.2,N
1658032475.0,286047001.7,N
1658032475.9,286047001.7,N
1658032495.8,286047002.2,N
1658032515.6,286047001.5,N
1658032535.4,286047001.6,N
1658032555.3,286047001.4,N
1658032575.1,286047004.4,Y
1658032595.9,286047000.0,P
1658032615.7,286047000.3,N
1658032635.5,286046999.9,N
1658032655.4,286047000.2,N
1658032675.2,286046999.9,N
1658032695.0,286047000.9,N
1658032695.9,286047000.9,N
1658032715.8,286047002.0,Y
1658032735.6,286046999.7,P
1658032755.5,286047002.2,P
1658032775.3,286047000.3,N
1658032795.1,286047000.1,N
1658032815.9,286047000.2,N
1658032835.7,286046999.7,N
1658032855.5,286046999.9,N
1658032875.4,286047000.4,N
1658032895.2,286047000.3,N
1658032915.1,286046999.7,N
1658032916.0,286046999.7,N
1658032935.8,286046999.8,N
1658032955.6,286047000.4,N
1658032975.5,286047000.1,N
1658032995.3,286047000.5,N
1658033015.1,286047002.6,Y
1658033035.9,286047000.1,P
1658033055.7,286047000.2,N
1658033075.6,286047000.2,P
1658033095.4,286047002.7,Y
1658033115.2,286047001.6,P
1658033135.1,286047001.9,N
1658033136.0,286047001.9,N
1658033155.8,286047000.1,N
1658033175.6,286046998.2,N
1658033195.5,286047000.9,N
1658033215.3,286047000.9,N
1658033235.2,286047001.2,N
1658033255.9,286046998.3,N
1658033275.7,286047000.9,N
1658033295.6,286046998.4,N
1658033315.4,286046998.5,N
1658033335.2,286047000.7,N
1658033355.1,286046998.7,N
1658033356.0,286046998.7,N
1658033375.8,286046998.5,N
1658033395.7,286047001.1,N
1658033415.5,286046998.4,N
1658033435.3,286046998.9,N
1658033455.2,286046998.2,N
1658033475.0,286047001.0,N
1658033475.9,286047001.0,N
1658033495.7,286046998.1,N
1658033515.6,286046998.5,N
1658033535.4,286046998.6,N
1658033555.3,286046998.5,N
1658033575.1,286047000.6,N
1658033576.0,286047000.6,N
1658033595.8,286047001.1,N
1658033615.7,286046998.8,N
1658033635.5,286046999.4,N
1658033655.3,286046999.4,N
1658033675.2,286046999.5,N
1658033695.0,286046999.4,N
1658033695.9,286046999.4,N
1658033715.8,286046999.3,N
1658033735.6,286046996.5,Y
1658033755.4,286046999.0,P
1658033775.3,286046998.9,P
1658033795.1,286046998.3,P
1658033815.8,286046999.2,N
1658033835.7,286046999.0,N
1658033855.5,286046999.2,N
1658033875.4,286046998.4,Y
1658033895.2,286047000.0,P
1658033915.0,286047000.8,N
1658033915.9,286047000.8,N
1658033935.8,286046999.0,N
1658033955.6,286046998.7,N
1658033975.5,286046996.5,Y
1658033995.3,286046999.2,P
